Location: Boiro
(42.6475°N, 8.8834°W)
Time: 18:13:37
(UTC+01:00)

Tiros 1 despin weight - Pass Details

Date: 01 December 2021
Orbit: 592 x 641 km, 48.2° (Epoch: 25 January)

Event Time Altitude Azimuth Distance (km) Brightness Sun altitude
Rises 18:54:58 0° 287° (WNW) 2,824 ? -9.5°
Reaches altitude 10° 18:57:22 10° 295° (WNW) 1,923 ? -9.9°
Maximum altitude 19:01:33 41° 7° (N) 864 ? -10.6°
Enters shadow 19:04:46 16° 72° (ENE) 1,586 ? -11.2°
